This demonstration page uses our WeatherBlox Daily Observations layout. Learn more.

38.80484, -77.04692

Hourly Observations for November 7, 2019

Temp ( °F °C ) Dew Point ( °F °C ) Humidity (%) Winds ( mph kmh ) Pressure ( in mb ) Visibility ( mi km ) Precip ( " mm )
12:52 am 00:52 Mostly Cloudy 46 7.8 40 4.4 79 79 S 7 11 30.34 1028 10 16.0934 0 0
1:52 am 01:52 Cloudy 48 8.9 40 4.4 74 74 S 8 13 30.32 1027 10 16.0934 0 0
2:52 am 02:52 Cloudy 48 8.9 40 4.4 74 74 SSW 7 11 30.3 1026 10 16.0934 0 0
3:52 am 03:52 Cloudy 48 8.9 41 5 77 77 S 7 11 30.29 1026 10 16.0934 0 0
4:52 am 04:52 Cloudy 49 9.4 42 5.6 77 77 S 12 19 30.25 1025 10 16.0934 0 0
5:52 am 05:52 Cloudy 49 9.4 40 4.4 71 71 S 7 11 30.25 1025 10 16.0934 0 0
6:52 am 06:52 Mostly Cloudy 50 10 40 4.4 68 68 SSW 9 15 30.24 1024 10 16.0934 0 0
7:52 am 07:52 Cloudy 50 10 41 5 71 71 S 7 11 30.23 1024 10 16.0934 0 0
8:52 am 08:52 Cloudy 51 10.6 42 5.6 71 71 S 14 22 30.22 1023 10 16.0934 0 0
9:52 am 09:52 Cloudy 53 11.7 40 4.4 61 61 S 12 19 30.21 1023 10 16.0934 0 0
10:52 am 10:52 Cloudy 54 12.2 42 5.6 64 64 SSW 10 17 30.18 1022 10 16.0934 0 0
11:52 am 11:52 Cloudy 56 13.3 44 6.7 65 65 S 12 19 30.14 1021 10 16.0934 0 0
12:52 pm 12:52 Cloudy 57 13.9 46 7.8 67 67 SW 12 19 30.07 1018 10 16.0934 0 0
1:52 pm 13:52 Cloudy 60 15.6 47 8.3 62 62 SSW 8 13 30.05 1018 10 16.0934 0 0
2:52 pm 14:52 Cloudy 61 16.1 48 8.9 63 63 SSW 5 7 30.01 1016 10 16.0934 0 0
3:52 pm 15:52 Cloudy 61 16.1 48 8.9 63 63 WNW 6 9 30.01 1016 10 16.0934 0 0
4:52 pm 16:52 Cloudy with Light Rain 59 15 49 9.4 69 69 N 10 17 30.04 1017 10 16.0934 0.001 0.001
5:52 pm 17:52 Cloudy with Light Rain 55 12.8 51 10.6 87 87 N 9 15 30.06 1018 9 14.48406 0.03 0.762
6:52 pm 18:52 Cloudy with Light Rain 55 12.8 51 10.6 87 87 N 8 13 30.06 1018 10 16.0934 0.01 0.254
7:15 pm 19:15 Cloudy with Light Rain 54 12.2 51 10.6 90 90 NNW 7 11 30.06 1018 10 16.0934 0.01 0.254
7:37 pm 19:37 Cloudy with Light Rain 54 12.2 50 10 87 87 N 8 13 30.05 1018 10 16.0934 0.01 0.254
7:52 pm 19:52 Cloudy with Light Rain 54 12.2 50 10 87 87 NNW 12 19 30.05 1018 10 16.0934 0.01 0.254
8:52 pm 20:52 Cloudy with Light Rain 52 11.1 49 9.4 89 89 N 8 13 30.06 1018 10 16.0934 0.001 0.001
9:52 pm 21:52 Cloudy with Light Rain 50 10 44 6.7 80 80 NNW 20 31 30.08 1019 10 16.0934 0.01 0.254
10:52 pm 22:52 Cloudy 49 9.4 41 5 74 74 NNW 15 24 30.09 1019 10 16.0934 0.001 0.001
11:52 pm 23:52 Cloudy 47 8.3 37 2.8 69 69 NNW 10 17 30.11 1020 10 16.0934 0 0

Powered by AerisWeather